Content
SEND FEEDBACK

Daily
Averages
Monthly
Summary
Netherlands

ROTTERDAM, NETHERLANDS


Home > Europe > Netherlands
Elevation: 13 feet     Latitude: 51 57N     Longitude: 004 26E

WEATHER
 
SELECT A DAY
Number of Records: 422,851;   Date Range: 7/1/96 - 10/29/14
 
SHARE

PRINT THIS DATA

[ ← Previous Day ]
WEATHER ALMANAC - APRIL 3, 2013
[ Next Day → ]
[ °C ]   °F
Weather ElementAverageHighLow
Temperature37.7 °F46 °F (5:00 pm)30.2 °F (3:55 am)
Dewpoint22.7 °F24.8 °F (12:55 am)21.2 °F (4:25 am)
Humidity54.1 %75 % (12:55 am)25 % (5:00 pm)
Barometer30.01 in30.05 in (11:00 am)29.95 in (5:25 pm)
Wind Speed14.5 mph20.7 mph (11:25 am)
Weather ElementAverage
Visibility7.7 mi
Wind DirectionENE (72 °)

Weather ElementTotal
Precipitation---
Heating Degree Days26.9 (Base 65)
Averaged from 55 records on April 3, 2013
WEATHER CONDITIONS BREAKOUT
WIND DIRECTION BREAKOUT
WEATHER BY HOUR - APRIL 3, 2013
[ °C ]   °F
Local TimeTemperatureDewpointHumidityBarometerVisibilityWind DirectionWind SpeedGust SpeedPrecipitationEventsConditions
12:55 AM32.0 °F24.8 °F75 %30.01 in6.2 miENE (60°)9.2 mph
1:25 AM32.0 °F24.8 °F75 %30.01 in6.2 miENE (60°)10.4 mph
1:55 AM32.0 °F23.0 °F69 %30.01 in6.2 miENE (60°)9.2 mph
2:00 AM34.0 °F22.0 °F50 %30.03 in22.0 miENE (70°)13.4 mphPartly Cloudy
2:25 AM33.8 °F23.0 °F65 %30.01 in6.2 miENE (70°)10.4 mph
2:55 AM32.0 °F23.0 °F69 %30.01 in6.2 miENE (60°)11.5 mph
3:25 AM32.0 °F23.0 °F69 %30.01 in6.2 miNE (40°)8.1 mph
3:55 AM30.2 °F23.0 °F75 %30.04 in6.2 miNE (50°)11.5 mph
4:25 AM30.2 °F21.2 °F69 %30.04 in6.2 miNE (50°)12.7 mphScattered Clouds
4:55 AM32.0 °F21.2 °F64 %30.04 in6.2 miNE (50°)11.5 mphOvercast
5:00 AM31.0 °F22.0 °F58 %30.04 in14.0 miNE (40°)11.2 mphOvercast
5:25 AM32.0 °F23.0 °F69 %30.04 in6.2 miNE (40°)12.7 mphOvercast
5:55 AM32.0 °F23.0 °F69 %30.04 in6.2 miNE (50°)11.5 mphOvercast
6:25 AM33.8 °F21.2 °F60 %30.04 in6.2 miNE (50°)15.0 mphOvercast
6:55 AM33.8 °F23.0 °F65 %30.04 in6.2 miNE (50°)16.1 mphOvercast
7:25 AM32.0 °F23.0 °F69 %30.04 in6.2 miENE (60°)15.0 mphOvercast
7:55 AM32.0 °F23.0 °F69 %30.04 in6.2 miENE (60°)15.0 mphOvercast
8:00 AM33.0 °F23.0 °F54 %30.04 in15.0 miENE (60°)17.9 mphPartly Cloudy
8:25 AM32.0 °F23.0 °F69 %30.04 in6.2 miENE (60°)17.3 mphOvercast
8:55 AM33.8 °F23.0 °F65 %30.04 in6.2 miENE (60°)15.0 mphOvercast
9:25 AM33.8 °F23.0 °F65 %30.04 in6.2 miENE (60°)17.3 mphOvercast
9:55 AM35.6 °F23.0 °F60 %30.04 in6.2 miENE (70°)17.3 mphOvercast
10:25 AM37.4 °F24.8 °F60 %30.04 in6.2 miENE (70°)17.3 mphScattered Clouds
10:55 AM39.2 °F24.8 °F56 %30.04 in6.2 miENE (70°)18.4 mphScattered Clouds
11:00 AM39.0 °F24.0 °F42 %30.05 in13.0 miENE (60°)17.9 mphMostly Cloudy
11:25 AM37.4 °F23.0 °F56 %30.04 in6.2 miENE (70°)20.7 mphMostly Cloudy
11:55 AM41.0 °F24.8 °F53 %30.04 in6.2 miEast (80°)16.1 mphMostly Cloudy
12:25 PM39.2 °F23.0 °F52 %30.04 in6.2 miEast (80°)18.4 mphMostly Cloudy
12:55 PM39.2 °F23.0 °F52 %30.01 in6.2 miENE (70°)18.4 mphOvercast
1:25 PM41.0 °F23.0 °F49 %30.01 in6.2 miEast (90°)16.1 mphOvercast
1:55 PM41.0 °F23.0 °F49 %30.01 in6.2 miENE (70°)20.7 mphMostly Cloudy
2:00 PM41.0 °F22.0 °F33 %30.02 in14.0 miENE (70°)17.9 mphPartly Cloudy
2:25 PM41.0 °F23.0 °F49 %30.01 in6.2 miEast (80°)17.3 mphOvercast
2:55 PM42.8 °F23.0 °F46 %30.01 in6.2 miEast (80°)16.1 mph
3:25 PM44.6 °F24.8 °F46 %30.01 in6.2 miEast (90°)12.7 mph
3:55 PM44.6 °F23.0 °F43 %29.98 in6.2 miEast (80°)16.1 mph
4:25 PM44.6 °F21.2 °F39 %29.98 in6.2 miEast (80°)17.3 mph
4:55 PM44.6 °F21.2 °F39 %29.98 in6.2 miEast (80°)19.6 mph
5:00 PM46.0 °F22.0 °F25 %29.98 in22.0 miEast (80°)17.9 mphMostly Cloudy
5:25 PM44.6 °F21.2 °F39 %29.95 in6.2 miEast (80°)16.1 mph
5:55 PM44.6 °F21.2 °F39 %29.95 in6.2 miEast (90°)16.1 mph
6:25 PM44.6 °F21.2 °F39 %29.95 in6.2 miEast (80°)18.4 mph
6:55 PM42.8 °F23.0 °F46 %29.95 in6.2 miEast (90°)16.1 mph
7:25 PM44.6 °F21.2 °F39 %29.95 in6.2 miEast (80°)15.0 mph
7:55 PM42.8 °F21.2 °F42 %29.95 in6.2 miEast (80°)12.7 mph
8:00 PM42.0 °F22.0 °F32 %29.98 in19.0 miEast (90°)13.4 mphPartly Cloudy
8:25 PM41.0 °F21.2 °F45 %29.98 in6.2 miEast (100°)13.8 mph
8:55 PM41.0 °F21.2 °F45 %29.98 in6.2 miEast (100°)15.0 mph
9:25 PM39.2 °F23.0 °F52 %29.98 in6.2 miEast (100°)11.5 mph
9:55 PM39.2 °F23.0 °F52 %29.98 in6.2 miEast (90°)9.2 mph
10:25 PM37.4 °F23.0 °F56 %29.98 in6.2 miEast (90°)9.2 mph
10:55 PM39.2 °F23.0 °F52 %29.98 in6.2 miEast (90°)10.4 mph
11:00 PM38.0 °F22.0 °F40 %29.99 in15.0 miEast (90°)11.2 mphOvercast
11:25 PM37.4 °F23.0 °F56 %29.98 in6.2 miEast (90°)9.2 mph
11:55 PM35.6 °F23.0 °F60 %29.98 in6.2 miEast (90°)10.4 mph
Hourly data recorded from EHRD, located miles away from Rotterdam, Netherlands







STORIES FROM OUR PARTNERS